STARLINK-11522, 63141

Orbit data source: Space-Track

STARLINK-11522, 63141 is a payload satellite owned by SpaceX/Seattle (US) in LEO that was launched on Mon, 03 Mar 2025 UTC via an FALCON 9 launch vehicle from the Air Force Eastern Test Range (AFETR). Payload-class satellites include a variety of spacecraft equipped with specific instruments for various scientific and technological missions. These include communications satellites like Starlink; space stations such as the ISS; scientific satellites like the Hubble; Earth observation satellites from companies like Planet Labs, Umbra, and HawkEye 360; GPS; miniature CubeSats for education and research; and military/defense satellites.

Loading next visibility...
Identifier
63141, 2025-043K
Orbit
LEO
Country
Flag of USUS
Related business
Manufacturer
SpaceX/Seattle
Mission
Operational Commercial Communications
Bus & Motor
STARLINK V2MD, Unknown motor
Mass
960 kg wet, ~910 kg dry
Launch date (UTC)
2025-03-03 (6 months ago)
Launch vehicle
FALCON 9
Launch site
Air Force Eastern Test Range (AFETR)
Object type
Payload
Rocket body
Debris
Shape & HBR
Box + 2 Pan, 14.5 m
Radar Cross Section
36.964 m², Large (>1 m²)

Expand to show TLE details & history
Last TLE update: 17 hours ago

TLE from 17 hours ago
0 STARLINK-11522
1 63141U 25043K   25258.19628995  .00425539  00000-0  31211-2 0  9998
2 63141  42.9989 228.3450 0001836 233.0628 127.0072 15.71082930 31698
Epoch: 2025-09-15T04:42Z
TLE epoch observation values (Epoch: 2025-09-15T04:42:39.451Z)
Latitude
-0.00001°
Longitude
163.2762°
Altitude
356.316 km
Speed
7.697 km/s
True Right ascension
15h 13m 22s
True Declination
0° 00' 00"
Sunlit
Object was in daylight at epoch
Visualization orbit readout
Latitude
Unknown
Longitude
Unknown
Altitude
Unknown
Speed
Unknown
Apparent Right ascension
Unknown
Apparent Declination
Unknown
Sunlit
N/A
Visualization observer readout
Local Sidereal Time
14:41:39
Azimuth
Unknown
Elevation
Unknown
Doppler factor
Unknown
Orbital elements
Apogee altitude
359.02 km
Perigee altitude
356.546 km
Semi-major axis
6,735.92 km
Eccentricity
0.00018
Inclination
42.9989°
RAAN
228.345°
Arg. of periapsis
233.0628°
True anomaly
127.024°
Mean anomaly
127.0072°
Eccentric anomaly
127.0156°
Mean motion
3.92598 °/min
Orbital period
91.7 mins
BSTAR
0.0031211
Loading maneuver chart data...
Computing Atmospheric mass density...
Loading historical data...
Loading historical data...
Loading historical data...
Loading historical data...
Loading historical data...
Loading historical data...
Loading historical data...

Documentation

Showing up to 5 results
|